Weather History for Middletown, PA

Change the Weather History Date:

Thursday, July 3, 2014

  Actual Average Record
Temperature  
Mean Temperature 83 °F 76 °F  
Max Temperature 92 °F 85 °F 107 °F (1966)
Min Temperature 73 °F 66 °F 51 °F (1939)
Degree Days  
Heating Degree Days 0 0  
Month to date heating degree days 0 0  
Since 1 June heating degree days 1 18  
Since 1 July heating degree days 0 0  
Cooling Degree Days 18 11  
Month to date cooling degree days 56 31  
Year to date cooling degree days 363 309  
Since 1 June cooling degree days 303 244  
Growing Degree Days 32 (Base 50)    
Moisture  
Dew Point 71 °F    
Average Humidity 73    
Maximum Humidity 93    
Minimum Humidity 52    
Precipitation  
Precipitation 0.05 in 0.15 in 1.65 in (1978)
Month to date precipitation 0.14 0.44  
Year to date precipitation 25.56 19.57  
Sea Level Pressure  
Sea Level Pressure 29.93 in    
Wind  
Wind Speed 5 mph (WSW)    
Max Wind Speed 17 mph    
Max Gust Speed 24 mph    
Visibility 8 miles    
Events Rain , Thunderstorm    
T = Trace of Precipitation, MM = Missing Value Source: NWS Daily Summary

Daily Weather History Graph

Daily Weather History Graph

Search for Another Location

Airport:

Trip Planner

Search our weather history database for the weather conditions in past years. The results will help you decide how hot, cold, wet, or windy it might be!

Date:

Astronomy

Jul. 03, 2014 Rise Set
Actual Time 5:42 AM EDT 8:40 PM EDT
Civil Twilight 5:09 AM EDT 9:12 PM EDT
Nautical Twilight 4:28 AM EDT 9:54 PM EDT
Astronomical Twilight 3:39 AM EDT 10:42 PM EDT
Moon 11:40 AM EDT (7/3) No Moon Set
Length of Visible Light 16h 03m
Length of Day
14h 57m
Waxing Crescent, 33% of the Moon is Illuminated
Jul 3
Waxing Crescent
Jul 5
First Quarter
Jul 12
Full
Jul 18
Last Quarter
Jul 26
New

Hourly Weather History & Observations

Time (EDT) Temp. Heat Index Dew Point Humidity Pressure Visibility Wind Dir Wind Speed Gust Speed Precip Events Conditions
12:56 AM 78.1 °F - 73.0 °F 84% 29.90 in 10.0 mi Calm Calm - N/A   Overcast
1:56 AM 75.0 °F - 72.0 °F 90% 29.90 in 7.0 mi NW 3.5 mph - N/A   Mostly Cloudy
2:56 AM 75.9 °F - 72.0 °F 87% 29.90 in 7.0 mi Calm Calm - N/A   Scattered Clouds
3:56 AM 75.0 °F - 72.0 °F 90% 29.90 in 5.0 mi Calm Calm - N/A   Scattered Clouds
4:56 AM 73.9 °F - 71.1 °F 91% 29.91 in 5.0 mi Calm Calm - N/A   Scattered Clouds
5:56 AM 73.0 °F - 71.1 °F 93% 29.93 in 3.0 mi Calm Calm - N/A   Mostly Cloudy
6:56 AM 75.0 °F - 72.0 °F 90% 29.94 in 4.0 mi Calm Calm - N/A   Mostly Cloudy
7:56 AM 77.0 °F - 72.0 °F 84% 29.94 in 7.0 mi NW 4.6 mph - N/A   Scattered Clouds
8:56 AM 79.0 °F - 72.0 °F 79% 29.96 in 8.0 mi WNW 6.9 mph - N/A   Partly Cloudy
9:56 AM 82.0 °F 86.7 °F 72.0 °F 71% 29.94 in 10.0 mi Variable 4.6 mph - N/A   Scattered Clouds
10:56 AM 86.0 °F 92.2 °F 72.0 °F 63% 29.94 in 10.0 mi SSE 3.5 mph - N/A   Partly Cloudy
11:56 AM 88.0 °F 92.1 °F 69.1 °F 53% 29.94 in 10.0 mi SE 4.6 mph - N/A   Scattered Clouds
12:56 PM 90.0 °F 95.4 °F 70.0 °F 52% 29.92 in 10.0 mi SE 8.1 mph - N/A   Scattered Clouds
1:56 PM 91.0 °F 98.2 °F 72.0 °F 53% 29.90 in 10.0 mi SSE 10.4 mph - N/A   Mostly Cloudy
2:56 PM 90.0 °F 99.0 °F 73.9 °F 59% 29.88 in 10.0 mi SSE 16.1 mph - N/A   Mostly Cloudy
3:56 PM 87.1 °F 92.8 °F 71.1 °F 59% 29.88 in 10.0 mi SW 8.1 mph - N/A   Overcast
4:56 PM 86.0 °F 92.2 °F 72.0 °F 63% 29.88 in 9.0 mi Calm Calm - N/A   Overcast
5:19 PM 84.0 °F 90.2 °F 73.0 °F 69% 29.90 in 9.0 mi Variable 6.9 mph - 0.00 in Rain , Thunderstorm Light Thunderstorms and Rain
5:56 PM 80.1 °F 84.5 °F 73.9 °F 81% 29.91 in 8.0 mi NW 18.4 mph - 0.05 in Rain Light Rain
6:56 PM 79.0 °F - 71.1 °F 77% 29.94 in 10.0 mi WSW 11.5 mph - 0.00 in   Overcast
7:56 PM 75.0 °F - 70.0 °F 84% 29.94 in 10.0 mi NW 5.8 mph - 0.00 in Rain Light Rain
8:56 PM 73.0 °F - 69.1 °F 87% 29.97 in 9.0 mi NW 6.9 mph - 0.00 in   Overcast
9:56 PM 73.0 °F - 69.1 °F 87% 29.97 in 9.0 mi West 4.6 mph - N/A   Overcast
10:56 PM 73.0 °F - 69.1 °F 87% 29.99 in 8.0 mi Calm Calm - N/A   Overcast
11:56 PM 73.9 °F - 69.1 °F 85% 30.00 in 9.0 mi Variable 3.5 mph - N/A   Overcast